Regional Weather Roundup
Issued by NWS

Home | Current Version | Previous Version | Graphics & Text | Print | Product List | Glossary On
Versions: 1 2 3 4 5 6 7 8 9 10 11 12 13 14 15 16 17 18 19 20 21 22 23 24 25 26 27 28 29 30 31 32 33 34 35 36 37 38 39 40 41 42 43 44 45 46 47 48 49 50
000
ASUS43 KTOP 262208
RWRKS

WEATHER ROUNDUP FOR KANSAS
NATIONAL WEATHER SERVICE GOODLAND KS
400 PM CST WED NOV 26 2014

NOTE:  "FAIR" INDICATES FEW OR NO CLOUDS BELOW 12,000 FEET WITH NO
SIGNIFICANT WEATHER AND/OR OBSTRUCTIONS TO VISIBILITY.

KSZ001>006-013>018-027>032-041>047-262300-
NORTHWEST KANSAS

CITY           SKY/WX    TMP DP  RH WIND       PRES   REMARKS
GOODLAND       CLOUDY    36  26  67 NW5       30.28R
HAYS           CLOUDY    39  18  41 N18       30.31R WCI  30
HILL CITY      CLOUDY    38  18  44 NW16      30.31R WCI  29
RUSSELL        CLOUDY    39  21  48 NW18      30.29R WCI  30
$$

KSZ061>065-074>080-084>089-262300-
SOUTHWEST KANSAS

CITY           SKY/WX    TMP DP  RH WIND       PRES   REMARKS
DODGE CITY     SUNNY     44  14  29 N18       30.28R
ELKHART          N/A     47  21  35 N5          N/A
GARDEN CITY    SUNNY     43  18  36 N16       30.28R
GREAT BEND     CLOUDY    39  19  45 N17       30.31R WCI  30
LIBERAL        SUNNY     46  18  31 N8        30.29F
PRATT          CLOUDY    41  19  42 NW21      30.29R
$$

KSZ066>073-081>083-090>101-262300-
SOUTHEAST KANSAS

CITY           SKY/WX    TMP DP  RH WIND       PRES   REMARKS
CHANUTE        CLOUDY    42  26  53 NW20G29   30.19R
COFFEYVILLE    MOSUNNY   46  25  43 NW22G35   30.20R
HUTCHINSON     PTSUNNY   41  21  44 N15G25    30.27R
MEDICINE LODGE   N/A     45  19  35 N17G28    30.28R
NEWTON         MOSUNNY   39  19  45 N18G30    30.26R WCI  30
PARSONS        PTSUNNY   45  26  47 NW22G32   30.20R
WICHITA INTL   PTSUNNY   44  22  41 NW20G33   30.25R
WICHITA JABRA  MOSUNNY   41  23  48 NW18      30.24R
WICHITA MCCONL PTSUNNY   43  21  41 N17G29    30.24R
WINFIELD       PTSUNNY   45  24  43 NW23      30.26R
$$

KSZ007>012-019>026-033>040-048>060-102>105-262300-
NORTHEAST KANSAS

CITY           SKY/WX    TMP DP  RH WIND       PRES   REMARKS
CONCORDIA      PTSUNNY   34  21  59 N21G29    30.28R WCI  22
EMPORIA        PTSUNNY   36  24  62 NW24G32   30.21R WCI  24
LAWRENCE       CLOUDY    35  26  69 NW26G32   30.18R WCI  22
MANHATTAN      PTCLDY    36  23  59 N5G22     30.25R
MARYSVILLE     CLOUDY    32  23  69 N23G30    30.25R WCI  19
OLATHE IND     CLOUDY    34  27  75 NW21G30   30.15R WCI  22
OLATHE EXE     CLOUDY    35  28  75 NW24G35   30.13R WCI  23
SALINA         MOSUNNY   39  22  50 NW22      30.28R WCI  29
TOPEKA BILLARD CLOUDY    36  25  64 NW23G31   30.21R WCI  24
TOPEKA FORBES  CLOUDY    37  25  61 NW26G35   30.19R WCI  25
$$


USA.gov is the U.S. government's official web portal to all federal, state and local government web resources and services.